This demonstration page uses our WeatherBlox Daily Observations layout. Learn more.

Hourly Observations for April 28, 2016

Temp ( °F °C ) Dew Point ( °F °C ) Humidity (%) Winds ( mph kmh ) Pressure ( in mb ) Visibility ( mi km ) Precip ( " mm )
12:15 am 00:15 Clear 37 2.7 33 0.4 85 85 WNW 13 20 29.85 1011 10 16.0934 0 0
12:35 am 00:35 Clear 37 2.5 32 0.2 85 85 WNW 14 22 29.85 1011 10 16.0934 0 0
12:55 am 00:55 Clear 36 2.3 32 0.2 86 86 WNW 15 24 29.85 1011 10 16.0934 0 0
1:15 am 01:15 Clear 36 2.3 32 0.1 86 86 WNW 16 26 29.85 1011 10 16.0934 0 0
1:35 am 01:35 Clear 36 2.2 32 0.1 86 86 WNW 16 26 29.85 1011 10 16.0934 0 0
1:55 am 01:55 Clear 36 2.2 32 0 86 86 WNW 16 26 29.88 1012 10 16.0934 0 0
2:15 am 02:15 Clear 36 2.2 32 0 86 86 WNW 16 26 29.88 1012 10 16.0934 0 0
2:35 am 02:35 Clear 36 2 32 0 87 87 NW 13 20 29.88 1012 10 16.0934 0 0
2:55 am 02:55 Clear 35 1.6 32 0 89 89 NW 13 20 29.88 1012 10 16.0934 0 0
3:15 am 03:15 Clear 35 1.7 32 0 89 89 NW 14 22 29.88 1012 10 16.0934 0 0
3:35 am 03:35 Clear 35 1.7 32 0 89 89 NW 13 20 29.88 1012 10 16.0934 0 0
3:55 am 03:55 Clear 35 1.9 32 0 87 87 WNW 10 17 29.91 1013 10 16.0934 0 0
4:15 am 04:15 Clear 35 1.8 32 0 88 88 WNW 10 17 29.91 1013 10 16.0934 0 0
4:35 am 04:35 Partly Cloudy 35 1.7 32 0 89 89 WNW 10 17 29.94 1014 10 16.0934 0 0
4:55 am 04:55 Mostly Cloudy 36 2 32 0 87 87 NW 10 17 29.94 1014 10 16.0934 0 0
5:15 am 05:15 Mostly Cloudy 35 1.7 32 0 89 89 NW 12 19 29.94 1014 10 16.0934 0 0
5:35 am 05:35 Partly Cloudy 35 1.6 32 0 89 89 NW 12 19 29.94 1014 10 16.0934 0 0
5:55 am 05:55 Mostly Cloudy 35 1.8 32 0 88 88 NNW 14 22 29.94 1014 10 16.0934 0 0
6:15 am 06:15 Partly Cloudy 35 1.7 32 0 89 89 NNW 13 20 29.94 1014 10 16.0934 0 0
6:35 am 06:35 Clear 35 1.6 32 0 89 89 NNW 14 22 29.94 1014 10 16.0934 0 0
6:55 am 06:55 Sunny 35 1.7 32 0.1 89 89 NNW 14 22 29.94 1014 10 16.0934 0 0
7:15 am 07:15 Sunny 36 2.1 32 0.2 87 87 NW 10 17 29.97 1015 10 16.0934 0 0
7:35 am 07:35 Sunny 37 2.5 33 0.5 87 87 NW 14 22 30 1016 10 16.0934 0 0
7:55 am 07:55 Sunny 37 3 33 0.6 84 84 NW 13 20 29.97 1015 10 16.0934 0 0
8:15 am 08:15 Sunny 38 3.5 34 1.1 84 84 NW 9 15 30 1016 10 16.0934 0 0
8:35 am 08:35 Partly Cloudy 39 3.9 34 1.3 83 83 NNW 12 19 30 1016 10 16.0934 0 0
8:55 am 08:55 Partly Cloudy 40 4.5 35 1.7 82 82 NNW 12 19 30.03 1017 10 16.0934 0 0
9:15 am 09:15 Partly Cloudy 41 4.9 36 2 82 82 NNW 14 22 30.03 1017 10 16.0934 0 0
9:35 am 09:35 Mostly Cloudy 42 5.3 35 1.9 79 79 NNW 9 15 30.03 1017 10 16.0934 0 0
9:55 am 09:55 Mostly Cloudy 43 6.1 37 2.6 79 79 NNW 10 17 30 1016 10 16.0934 0 0
10:15 am 10:15 Mostly Cloudy 44 6.6 37 2.9 77 77 NNW 13 20 30 1016 10 16.0934 0 0
10:35 am 10:35 Cloudy 44 6.5 37 2.5 76 76 NNW 12 19 30 1016 10 16.0934 0 0
10:55 am 10:55 Cloudy 44 6.9 37 2.6 74 74 N 12 19 30 1016 10 16.0934 0 0
11:15 am 11:15 Cloudy 45 7 37 2.8 75 75 NNW 9 15 30.03 1017 10 16.0934 0 0
11:35 am 11:35 Cloudy 45 7 37 2.7 74 74 NW 8 13 30.03 1017 10 16.0934 0 0
11:55 am 11:55 Cloudy 45 7.3 38 3.1 75 75 N 7 11 30.03 1017 10 16.0934 0 0
12:15 pm 12:15 Cloudy 46 7.5 38 3.3 75 75 N 8 13 30.03 1017 10 16.0934 0 0
12:35 pm 12:35 Cloudy 46 7.8 39 3.7 76 76 N 8 13 30.03 1017 10 16.0934 0 0
12:55 pm 12:55 Cloudy 47 8.2 39 4 75 75 N 7 11 30.03 1017 10 16.0934 0 0
1:15 pm 13:15 Cloudy 48 8.7 40 4.3 74 74 NNW 6 9 30.03 1017 10 16.0934 0 0
1:35 pm 13:35 Cloudy 47 8.6 39 3.7 72 72 N 5 7 30.03 1017 10 16.0934 0 0
1:55 pm 13:55 Cloudy 48 9.1 40 4.2 72 72 N 7 11 30.03 1017 10 16.0934 0 0
2:15 pm 14:15 Cloudy 49 9.2 39 4.1 71 71 N 5 7 30 1016 10 16.0934 0 0
2:35 pm 14:35 Cloudy 48 9 38 3.5 69 69 Calm 30.06 1018 10 16.0934 0 0
2:55 pm 14:55 Cloudy 48 8.8 38 3.5 70 70 NNW 3 6 30.06 1018 10 16.0934 0 0
3:15 pm 15:15 Cloudy 48 9 38 3.5 69 69 Calm 30.06 1018 10 16.0934 0 0
3:35 pm 15:35 Cloudy 48 9.1 39 3.7 69 69 NNW 3 6 30.06 1018 10 16.0934 0 0
3:55 pm 15:55 Cloudy 49 9.2 38 3.6 68 68 N 5 7 30.06 1018 10 16.0934 0 0
4:15 pm 16:15 Cloudy 49 9.2 39 3.8 69 69 N 8 13 30 1016 10 16.0934 0 0
4:35 pm 16:35 Cloudy with Light Rain 48 8.9 42 5.3 78 78 N 9 15 30.03 1017 10 16.0934 0 0
4:55 pm 16:55 Cloudy with Light Rain 48 8.7 41 5 78 78 N 7 11 30.03 1017 10 16.0934 0 0
5:15 pm 17:15 Cloudy 48 9 41 5.1 77 77 N 7 11 30.03 1017 10 16.0934 0 0
5:35 pm 17:35 Cloudy 48 9 42 5.4 78 78 N 9 15 30.03 1017 10 16.0934 0 0
5:55 pm 17:55 Cloudy 48 9.1 41 5.2 77 77 N 9 15 30.06 1018 10 16.0934 0 0
6:15 pm 18:15 Cloudy 48 9 42 5.3 78 78 N 12 19 30.06 1018 10 16.0934 0 0
6:35 pm 18:35 Cloudy 47 8.6 42 5.4 81 81 N 9 15 30.06 1018 10 16.0934 0 0
6:55 pm 18:55 Cloudy 47 8.5 41 5.1 79 79 N 9 15 30.06 1018 10 16.0934 0 0
7:15 pm 19:15 Cloudy 47 8.4 41 5.1 80 80 N 9 15 30.06 1018 10 16.0934 0 0
7:35 pm 19:35 Cloudy 46 8 41 5 82 82 N 9 15 30.06 1018 10 16.0934 0 0
7:55 pm 19:55 Cloudy 46 8 41 5 82 82 N 7 11 30.06 1018 10 16.0934 0 0
8:15 pm 20:15 Cloudy 46 7.8 41 5.1 83 83 N 8 13 30.06 1018 10 16.0934 0 0
8:35 pm 20:35 Cloudy 46 7.6 41 5.1 84 84 NNE 3 6 30.09 1019 10 16.0934 0 0
8:55 pm 20:55 Cloudy 46 7.5 41 5.1 85 85 N 3 6 30.09 1019 10 16.0934 0 0
9:15 pm 21:15 Cloudy 46 7.5 41 5.1 85 85 Calm 30.12 1020 10 16.0934 0 0
9:35 pm 21:35 Cloudy 45 7.3 42 5.3 87 87 Calm 30.12 1020 10 16.0934 0 0
9:55 pm 21:55 Cloudy 45 7.1 42 5.5 90 90 Calm 30.12 1020 10 16.0934 0 0
10:15 pm 22:15 Cloudy 44 6.9 42 5.3 90 90 Calm 30.12 1020 10 16.0934 0 0
10:35 pm 22:35 Cloudy 45 7 42 5.5 90 90 Calm 30.18 1022 10 16.0934 0 0
10:55 pm 22:55 Cloudy 45 7.1 42 5.5 90 90 NE 3 6 30.15 1021 10 16.0934 0 0
11:15 pm 23:15 Cloudy 45 7.1 42 5.3 88 88 NE 5 7 30.15 1021 10 16.0934 0 0
11:35 pm 23:35 Cloudy 45 7.1 42 5.3 88 88 ENE 5 7 30.15 1021 10 16.0934 0 0
11:55 pm 23:55 Cloudy 45 7 41 5.2 88 88 ENE 5 7 30.18 1022 10 16.0934 0 0

Powered by AerisWeather